Time,TemperatureF,DewpointF,PressureIn,WindDirection,WindDirectionDegrees,WindSpeedMPH,WindSpeedGustMPH,Humidity,HourlyPrecipIn,Conditions,Clouds,dailyrainin,SoftwareType,DateUTC
2013-08-09 00:01:00,55.0,32.0,-100.00,North,-999,-999.0,-999.0,41,-99.99,,,-99.99,,2013-08-09 06:01:00,
2013-08-09 00:21:00,56.0,32.0,-100.00,North,-999,-999.0,-999.0,39,-99.99,,,-99.99,,2013-08-09 06:21:00,
2013-08-09 00:32:00,56.0,32.0,-100.00,North,-999,-999.0,-999.0,39,-99.99,,,-99.99,,2013-08-09 06:32:00,
2013-08-09 00:43:00,57.0,31.0,-100.00,North,-999,-999.0,-999.0,37,-99.99,,,-99.99,,2013-08-09 06:43:00,
2013-08-09 00:52:00,57.0,31.0,-100.00,North,-999,-999.0,-999.0,37,-99.99,,,-99.99,,2013-08-09 06:52:00,
2013-08-09 01:01:00,56.0,31.0,-100.00,North,-999,-999.0,-999.0,38,-99.99,,,-99.99,,2013-08-09 07:01:00,
2013-08-09 01:12:00,56.0,31.0,-100.00,North,-999,-999.0,-999.0,38,-99.99,,,-99.99,,2013-08-09 07:12:00,
2013-08-09 01:21:00,56.0,31.0,-100.00,North,-999,-999.0,-999.0,39,-99.99,,,-99.99,,2013-08-09 07:21:00,
2013-08-09 01:33:00,56.0,31.0,-100.00,North,-999,-999.0,-999.0,39,-99.99,,,-99.99,,2013-08-09 07:33:00,
2013-08-09 01:43:00,55.0,31.0,-100.00,North,-999,-999.0,-999.0,39,-99.99,,,-99.99,,2013-08-09 07:43:00,
2013-08-09 01:53:00,55.0,31.0,-100.00,North,-999,-999.0,-999.0,39,-99.99,,,-99.99,,2013-08-09 07:53:00,
2013-08-09 02:02:00,55.0,31.0,-100.00,North,-999,-999.0,-999.0,39,-99.99,,,-99.99,,2013-08-09 08:02:00,
2013-08-09 02:21:00,55.0,31.0,-100.00,North,-999,-999.0,-999.0,39,-99.99,,,-99.99,,2013-08-09 08:21:00,
2013-08-09 02:32:00,55.0,31.0,-100.00,North,-999,-999.0,-999.0,39,-99.99,,,-99.99,,2013-08-09 08:32:00,
2013-08-09 02:43:00,55.0,29.0,-100.00,North,-999,-999.0,-999.0,36,-99.99,,,-99.99,,2013-08-09 08:43:00,
2013-08-09 03:02:00,55.0,27.0,-100.00,North,-999,-999.0,-999.0,33,-99.99,,,-99.99,,2013-08-09 09:02:00,
2013-08-09 03:32:00,55.0,26.0,-100.00,North,-999,-999.0,-999.0,31,-99.99,,,-99.99,,2013-08-09 09:32:00,
2013-08-09 03:43:00,53.0,23.0,-100.00,North,-999,-999.0,-999.0,31,-99.99,,,-99.99,,2013-08-09 09:43:00,
2013-08-09 03:52:00,53.0,23.0,-100.00,North,-999,-999.0,-999.0,31,-99.99,,,-99.99,,2013-08-09 09:52:00,
2013-08-09 04:22:00,55.0,21.0,-100.00,North,-999,-999.0,-999.0,26,-99.99,,,-99.99,,2013-08-09 10:22:00,
2013-08-09 04:32:00,55.0,21.0,-100.00,North,-999,-999.0,-999.0,26,-99.99,,,-99.99,,2013-08-09 10:32:00,
2013-08-09 04:43:00,54.0,22.0,-100.00,North,-999,-999.0,-999.0,28,-99.99,,,-99.99,,2013-08-09 10:43:00,
2013-08-09 04:53:00,54.0,22.0,-100.00,North,-999,-999.0,-999.0,28,-99.99,,,-99.99,,2013-08-09 10:53:00,
2013-08-09 05:01:00,55.0,22.0,-100.00,North,-999,-999.0,-999.0,27,-99.99,,,-99.99,,2013-08-09 11:01:00,
2013-08-09 05:11:00,55.0,22.0,-100.00,North,-999,-999.0,-999.0,27,-99.99,,,-99.99,,2013-08-09 11:11:00,
2013-08-09 05:22:00,54.0,22.0,-100.00,North,-999,-999.0,-999.0,28,-99.99,,,-99.99,,2013-08-09 11:22:00,
2013-08-09 05:33:00,54.0,22.0,-100.00,North,-999,-999.0,-999.0,28,-99.99,,,-99.99,,2013-08-09 11:33:00,
2013-08-09 05:42:00,54.0,24.0,-100.00,North,-999,-999.0,-999.0,30,-99.99,,,-99.99,,2013-08-09 11:42:00,
2013-08-09 05:53:00,54.0,24.0,-100.00,North,-999,-999.0,-999.0,30,-99.99,,,-99.99,,2013-08-09 11:53:00,
2013-08-09 06:22:00,54.0,24.0,-100.00,North,-999,-999.0,-999.0,31,-99.99,,,-99.99,,2013-08-09 12:22:00,
2013-08-09 06:32:00,54.0,24.0,-100.00,North,-999,-999.0,-999.0,31,-99.99,,,-99.99,,2013-08-09 12:32:00,
2013-08-09 06:43:00,53.0,27.0,-100.00,North,-999,-999.0,-999.0,35,-99.99,,,-99.99,,2013-08-09 12:43:00,
2013-08-09 06:52:00,53.0,27.0,-100.00,North,-999,-999.0,-999.0,35,-99.99,,,-99.99,,2013-08-09 12:52:00,
2013-08-09 07:01:00,53.0,25.0,-100.00,North,-999,-999.0,-999.0,33,-99.99,,,-99.99,,2013-08-09 13:01:00,
2013-08-09 07:23:00,54.0,24.0,-100.00,North,-999,-999.0,-999.0,30,-99.99,,,-99.99,,2013-08-09 13:23:00,
2013-08-09 07:32:00,54.0,24.0,-100.00,North,-999,-999.0,-999.0,30,-99.99,,,-99.99,,2013-08-09 13:32:00,
2013-08-09 07:43:00,56.0,22.0,-100.00,North,-999,-999.0,-999.0,26,-99.99,,,-99.99,,2013-08-09 13:43:00,
2013-08-09 07:52:00,56.0,22.0,-100.00,North,-999,-999.0,-999.0,26,-99.99,,,-99.99,,2013-08-09 13:52:00,
2013-08-09 08:02:00,56.0,24.0,-100.00,North,-999,-999.0,-999.0,29,-99.99,,,-99.99,,2013-08-09 14:02:00,
2013-08-09 08:11:00,56.0,24.0,-100.00,North,-999,-999.0,-999.0,29,-99.99,,,-99.99,,2013-08-09 14:11:00,
2013-08-09 08:22:00,56.0,26.0,-100.00,North,-999,-999.0,-999.0,32,-99.99,,,-99.99,,2013-08-09 14:22:00,
2013-08-09 08:33:00,56.0,26.0,-100.00,North,-999,-999.0,-999.0,32,-99.99,,,-99.99,,2013-08-09 14:33:00,
2013-08-09 08:43:00,55.0,27.0,-100.00,North,-999,-999.0,-999.0,33,-99.99,,,-99.99,,2013-08-09 14:43:00,
2013-08-09 09:01:00,56.0,26.0,-100.00,North,-999,-999.0,-999.0,30,-99.99,,,-99.99,,2013-08-09 15:01:00,
2013-08-09 09:22:00,57.0,25.0,-100.00,North,-999,-999.0,-999.0,28,-99.99,,,-99.99,,2013-08-09 15:22:00,
2013-08-09 09:32:00,57.0,25.0,-100.00,North,-999,-999.0,-999.0,28,-99.99,,,-99.99,,2013-08-09 15:32:00,
2013-08-09 09:44:00,58.0,25.0,-100.00,North,-999,-999.0,-999.0,28,-99.99,,,-99.99,,2013-08-09 15:44:00,
2013-08-09 09:53:00,58.0,25.0,-100.00,North,-999,-999.0,-999.0,28,-99.99,,,-99.99,,2013-08-09 15:53:00,
2013-08-09 10:01:00,59.0,25.0,-100.00,North,-999,-999.0,-999.0,27,-99.99,,,-99.99,,2013-08-09 16:01:00,
2013-08-09 10:11:00,59.0,25.0,-100.00,North,-999,-999.0,-999.0,27,-99.99,,,-99.99,,2013-08-09 16:11:00,
2013-08-09 10:22:00,59.0,25.0,-100.00,North,-999,-999.0,-999.0,27,-99.99,,,-99.99,,2013-08-09 16:22:00,
2013-08-09 10:32:00,59.0,25.0,-100.00,North,-999,-999.0,-999.0,27,-99.99,,,-99.99,,2013-08-09 16:32:00,
2013-08-09 10:43:00,60.0,31.0,-100.00,North,-999,-999.0,-999.0,32,-99.99,,,-99.99,,2013-08-09 16:43:00,
2013-08-09 11:02:00,62.0,35.0,-100.00,North,-999,-999.0,-999.0,36,-99.99,,,-99.99,,2013-08-09 17:02:00,
2013-08-09 11:22:00,63.0,37.0,-100.00,North,-999,-999.0,-999.0,38,-99.99,,,-99.99,,2013-08-09 17:22:00,
2013-08-09 11:32:00,63.0,37.0,-100.00,North,-999,-999.0,-999.0,38,-99.99,,,-99.99,,2013-08-09 17:32:00,
2013-08-09 11:52:00,65.0,36.0,-100.00,North,-999,-999.0,-999.0,34,-99.99,,,-99.99,,2013-08-09 17:52:00,
2013-08-09 12:01:00,65.0,36.0,-100.00,North,-999,-999.0,-999.0,34,-99.99,,,-99.99,,2013-08-09 18:01:00,
2013-08-09 12:22:00,65.0,36.0,-100.00,North,-999,-999.0,-999.0,33,-99.99,,,-99.99,,2013-08-09 18:22:00,
2013-08-09 12:32:00,65.0,36.0,-100.00,North,-999,-999.0,-999.0,33,-99.99,,,-99.99,,2013-08-09 18:32:00,
2013-08-09 12:53:00,67.0,36.0,-100.00,North,-999,-999.0,-999.0,31,-99.99,,,-99.99,,2013-08-09 18:53:00,
2013-08-09 13:02:00,68.0,35.0,-100.00,North,-999,-999.0,-999.0,29,-99.99,,,-99.99,,2013-08-09 19:02:00,
2013-08-09 13:22:00,69.0,33.0,-100.00,North,-999,-999.0,-999.0,26,-99.99,,,-99.99,,2013-08-09 19:22:00,
2013-08-09 13:32:00,69.0,33.0,-100.00,North,-999,-999.0,-999.0,26,-99.99,,,-99.99,,2013-08-09 19:32:00,
2013-08-09 13:52:00,68.0,34.0,-100.00,North,-999,-999.0,-999.0,28,-99.99,,,-99.99,,2013-08-09 19:52:00,
2013-08-09 14:22:00,67.0,32.0,-100.00,North,-999,-999.0,-999.0,27,-99.99,,,-99.99,,2013-08-09 20:22:00,
2013-08-09 14:32:00,67.0,32.0,-100.00,North,-999,-999.0,-999.0,27,-99.99,,,-99.99,,2013-08-09 20:32:00,
2013-08-09 14:43:00,62.0,35.0,-100.00,North,-999,-999.0,-999.0,35,-99.99,,,-99.99,,2013-08-09 20:43:00,
2013-08-09 14:52:00,62.0,35.0,-100.00,North,-999,-999.0,-999.0,35,-99.99,,,-99.99,,2013-08-09 20:52:00,
2013-08-09 15:22:00,57.0,34.0,-100.00,North,-999,-999.0,-999.0,40,-99.99,,,-99.99,,2013-08-09 21:22:00,
2013-08-09 15:32:00,57.0,34.0,-100.00,North,-999,-999.0,-999.0,40,-99.99,,,-99.99,,2013-08-09 21:32:00,
2013-08-09 16:22:00,49.0,37.0,-100.00,North,-999,-999.0,-999.0,61,-99.99,,,-99.99,,2013-08-09 22:22:00,
2013-08-09 16:32:00,49.0,37.0,-100.00,North,-999,-999.0,-999.0,61,-99.99,,,-99.99,,2013-08-09 22:32:00,
2013-08-09 16:52:00,51.0,36.0,-100.00,North,-999,-999.0,-999.0,55,-99.99,,,-99.99,,2013-08-09 22:52:00,
2013-08-09 17:01:00,52.0,34.0,-100.00,North,-999,-999.0,-999.0,49,-99.99,,,-99.99,,2013-08-09 23:01:00,
2013-08-09 17:21:00,53.0,34.0,-100.00,North,-999,-999.0,-999.0,49,-99.99,,,-99.99,,2013-08-09 23:21:00,
2013-08-09 17:32:00,53.0,34.0,-100.00,North,-999,-999.0,-999.0,49,-99.99,,,-99.99,,2013-08-09 23:32:00,
2013-08-09 17:43:00,51.0,36.0,-100.00,North,-999,-999.0,-999.0,56,-99.99,,,-99.99,,2013-08-09 23:43:00,
2013-08-09 17:52:00,51.0,36.0,-100.00,North,-999,-999.0,-999.0,56,-99.99,,,-99.99,,2013-08-09 23:52:00,
2013-08-09 18:01:00,52.0,36.0,-100.00,North,-999,-999.0,-999.0,55,-99.99,,,-99.99,,2013-08-10 00:01:00,
2013-08-09 18:22:00,52.0,36.0,-100.00,North,-999,-999.0,-999.0,54,-99.99,,,-99.99,,2013-08-10 00:22:00,
2013-08-09 18:33:00,52.0,36.0,-100.00,North,-999,-999.0,-999.0,54,-99.99,,,-99.99,,2013-08-10 00:33:00,
2013-08-09 18:52:00,53.0,34.0,-100.00,North,-999,-999.0,-999.0,48,-99.99,,,-99.99,,2013-08-10 00:52:00,
2013-08-09 19:01:00,54.0,32.0,-100.00,North,-999,-999.0,-999.0,43,-99.99,,,-99.99,,2013-08-10 01:01:00,
2013-08-09 19:11:00,54.0,32.0,-100.00,North,-999,-999.0,-999.0,43,-99.99,,,-99.99,,2013-08-10 01:11:00,
2013-08-09 19:21:00,54.0,34.0,-100.00,North,-999,-999.0,-999.0,46,-99.99,,,-99.99,,2013-08-10 01:21:00,
2013-08-09 19:32:00,54.0,34.0,-100.00,North,-999,-999.0,-999.0,46,-99.99,,,-99.99,,2013-08-10 01:32:00,
2013-08-09 19:42:00,53.0,34.0,-100.00,North,-999,-999.0,-999.0,47,-99.99,,,-99.99,,2013-08-10 01:42:00,
2013-08-09 19:52:00,53.0,34.0,-100.00,North,-999,-999.0,-999.0,47,-99.99,,,-99.99,,2013-08-10 01:52:00,
2013-08-09 20:03:00,53.0,34.0,-100.00,North,-999,-999.0,-999.0,49,-99.99,,,-99.99,,2013-08-10 02:03:00,
2013-08-09 20:11:00,52.0,34.0,-100.00,North,-999,-999.0,-999.0,49,-99.99,,,-99.99,,2013-08-10 02:11:00,
2013-08-09 20:21:00,52.0,34.0,-100.00,North,-999,-999.0,-999.0,49,-99.99,,,-99.99,,2013-08-10 02:21:00,
2013-08-09 20:32:00,52.0,34.0,-100.00,North,-999,-999.0,-999.0,49,-99.99,,,-99.99,,2013-08-10 02:32:00,
2013-08-09 20:42:00,52.0,33.0,-100.00,North,-999,-999.0,-999.0,47,-99.99,,,-99.99,,2013-08-10 02:42:00,
2013-08-09 20:52:00,52.0,33.0,-100.00,North,-999,-999.0,-999.0,47,-99.99,,,-99.99,,2013-08-10 02:52:00,
2013-08-09 21:01:00,53.0,33.0,-100.00,North,-999,-999.0,-999.0,46,-99.99,,,-99.99,,2013-08-10 03:01:00,
2013-08-09 21:11:00,53.0,32.0,-100.00,North,-999,-999.0,-999.0,45,-99.99,,,-99.99,,2013-08-10 03:11:00,
2013-08-09 21:21:00,53.0,32.0,-100.00,North,-999,-999.0,-999.0,45,-99.99,,,-99.99,,2013-08-10 03:21:00,
2013-08-09 21:30:00,54.0,31.0,-100.00,North,-999,-999.0,-999.0,41,-99.99,,,-99.99,,2013-08-10 03:30:00,
2013-08-09 21:32:00,53.0,32.0,-100.00,North,-999,-999.0,-999.0,45,-99.99,,,-99.99,,2013-08-10 03:32:00,
2013-08-09 21:42:00,54.0,31.0,-100.00,North,-999,-999.0,-999.0,41,-99.99,,,-99.99,,2013-08-10 03:42:00,
2013-08-09 21:52:00,54.0,31.0,-100.00,North,-999,-999.0,-999.0,41,-99.99,,,-99.99,,2013-08-10 03:52:00,
2013-08-09 22:01:00,54.0,31.0,-100.00,North,-999,-999.0,-999.0,41,-99.99,,,-99.99,,2013-08-10 04:01:00,
2013-08-09 22:12:00,54.0,31.0,-100.00,North,-999,-999.0,-999.0,41,-99.99,,,-99.99,,2013-08-10 04:12:00,
2013-08-09 22:22:00,54.0,31.0,-100.00,North,-999,-999.0,-999.0,41,-99.99,,,-99.99,,2013-08-10 04:22:00,
2013-08-09 22:43:00,54.0,32.0,-100.00,North,-999,-999.0,-999.0,42,-99.99,,,-99.99,,2013-08-10 04:43:00,
2013-08-09 23:02:00,54.0,31.0,-100.00,North,-999,-999.0,-999.0,41,-99.99,,,-99.99,,2013-08-10 05:02:00,
2013-08-09 23:11:00,54.0,31.0,-100.00,North,-999,-999.0,-999.0,41,-99.99,,,-99.99,,2013-08-10 05:11:00,
2013-08-09 23:22:00,54.0,31.0,-100.00,North,-999,-999.0,-999.0,40,-99.99,,,-99.99,,2013-08-10 05:22:00,
2013-08-09 23:32:00,54.0,31.0,-100.00,North,-999,-999.0,-999.0,40,-99.99,,,-99.99,,2013-08-10 05:32:00,
2013-08-09 23:42:00,55.0,30.0,-100.00,North,-999,-999.0,-999.0,39,-99.99,,,-99.99,,2013-08-10 05:42:00,
2013-08-09 23:52:00,55.0,30.0,-100.00,North,-999,-999.0,-999.0,39,-99.99,,,-99.99,,2013-08-10 05:52:00,